TimeCDT,TemperatureF,Dew PointF,Humidity,Sea Level PressureIn,VisibilityMPH,Wind Direction,Wind SpeedMPH,Gust SpeedMPH,PrecipitationIn,Events,Conditions,WindDirDegrees,DateUTC
12:54 AM,53.1,34.0,48,29.85,10.0,SSW,8.1,-,N/A,,Scattered Clouds,210,2012-10-09 05:54:00
1:54 AM,53.1,34.0,48,29.86,10.0,SSW,6.9,-,N/A,,Overcast,210,2012-10-09 06:54:00
2:54 AM,53.1,35.1,50,29.86,10.0,SW,9.2,-,N/A,,Overcast,220,2012-10-09 07:54:00
3:54 AM,53.6,35.6,51,29.84,10.0,SSW,10.4,-,N/A,,Overcast,210,2012-10-09 08:54:00
4:54 AM,53.1,35.1,50,29.82,10.0,SSW,11.5,-,N/A,,Overcast,200,2012-10-09 09:54:00
5:54 AM,53.1,36.0,52,29.82,10.0,SSW,10.4,-,N/A,,Overcast,210,2012-10-09 10:54:00
6:54 AM,52.0,36.0,54,29.83,10.0,SSW,6.9,-,N/A,,Overcast,210,2012-10-09 11:54:00
7:54 AM,52.0,36.0,54,29.84,10.0,South,6.9,-,N/A,,Overcast,190,2012-10-09 12:54:00
8:54 AM,53.1,37.0,55,29.87,10.0,WSW,8.1,-,N/A,,Overcast,240,2012-10-09 13:54:00
9:54 AM,57.9,37.0,46,29.86,10.0,WNW,12.7,-,N/A,,Overcast,300,2012-10-09 14:54:00
10:54 AM,60.1,39.9,47,29.86,10.0,NW,10.4,-,N/A,,Overcast,320,2012-10-09 15:54:00
11:54 AM,59.0,42.1,53,29.89,10.0,NW,16.1,21.9,N/A,,Overcast,310,2012-10-09 16:54:00
12:54 PM,57.9,41.0,53,29.90,10.0,NW,20.7,25.3,N/A,,Overcast,320,2012-10-09 17:54:00
1:54 PM,54.0,39.9,59,29.94,10.0,NW,20.7,26.5,N/A,,Overcast,320,2012-10-09 18:54:00
2:15 PM,51.8,39.2,62,29.94,10.0,NNW,15.0,-,N/A,,Overcast,340,2012-10-09 19:15:00
2:41 PM,51.8,39.2,62,29.95,10.0,NW,18.4,23.0,0.00,Rain,Light Rain,320,2012-10-09 19:41:00
2:54 PM,50.0,37.9,63,29.96,10.0,NW,18.4,-,0.00,Rain,Light Rain,310,2012-10-09 19:54:00
3:54 PM,46.9,39.9,77,29.96,10.0,West,4.6,-,0.03,Rain,Light Rain,270,2012-10-09 20:54:00
4:54 PM,48.0,41.0,77,29.96,10.0,SW,6.9,-,N/A,,Overcast,230,2012-10-09 21:54:00
5:54 PM,48.9,37.0,64,29.98,10.0,WNW,11.5,-,N/A,,Overcast,290,2012-10-09 22:54:00
6:54 PM,46.9,33.1,59,29.99,10.0,West,6.9,-,N/A,,Overcast,270,2012-10-09 23:54:00
7:54 PM,45.0,33.1,63,30.01,10.0,WNW,8.1,-,N/A,,Mostly Cloudy,300,2012-10-10 00:54:00
8:54 PM,46.0,30.0,54,30.05,10.0,NNW,10.4,-,N/A,,Clear,330,2012-10-10 01:54:00
9:54 PM,43.0,30.0,60,30.07,10.0,NW,8.1,-,N/A,,Partly Cloudy,310,2012-10-10 02:54:00
10:54 PM,43.0,30.0,60,30.09,10.0,NW,8.1,-,N/A,,Scattered Clouds,310,2012-10-10 03:54:00
11:54 PM,41.0,28.9,62,30.10,10.0,WNW,5.8,-,N/A,,Clear,300,2012-10-10 04:54:00